AP893 Weather Reports


time (UTC)temp
F
wind
direction
speed
knots
gust
knots
rain 1hr
in
rain 24hr
in
rain mn
in
humidity
%
barometer
mb
20260502220010 80 337 1.7 6.1 0.00 0.00 0.00 36 1015.3
20260502215010 81 222 3.5 7.8 0.00 0.00 0.00 36 1015.5
20260502214009 81 129 1.7 7.0 0.00 0.00 0.00 36 1015.6
20260502213010 81 294 2.6 7.8 0.00 0.00 0.00 35 1015.7
20260502212010 80 92 3.5 7.8 0.00 0.00 0.00 36 1015.7
20260502211009 81 300 2.6 7.0 0.00 0.00 0.00 35 1015.8
20260502210010 81 249 1.7 7.8 0.00 0.00 0.00 36 1015.8
20260502205010 80 49 2.6 8.7 0.00 0.00 0.00 37 1015.9
20260502204010 80 347 1.7 7.8 0.00 0.00 0.00 36 1015.8
20260502203010 80 358 3.5 7.0 0.00 0.00 0.00 36 1015.7
20260502201010 80 307 0.9 7.8 0.00 0.00 0.00 36 1015.8
20260502200011 80 89 0.9 12.2 0.00 0.00 0.00 36 1015.8
20260502195009 80 356 0.9 8.7 0.00 0.00 0.00 39 1015.9
20260502194010 80 223 0.0 7.0 0.00 0.00 0.00 40 1015.9
20260502191010 79 209 1.7 8.7 0.00 0.00 0.00 39 1016.0
20260502190009 78 170 1.7 7.8 0.00 0.00 0.00 40 1016.0
20260502185009 78 345 0.0 7.0 0.00 0.00 0.00 40 1016.0
20260502182010 79 188 0.0 5.2 0.00 0.00 0.00 40 1016.1
20260502163009 72 137 0.0 4.3 0.00 0.00 0.00 46 1015.8
20260502162011 71 155 0.0 4.3 0.00 0.00 0.00 49 1015.8
20260502161010 70 100 0.0 5.2 0.00 0.00 0.00 49 1015.7
20260502152009 63 92 0.0 0.0 0.00 0.00 0.00 69 1015.6
20260502151009 60 92 0.0 0.0 0.00 0.00 0.00 74 1015.6
20260502123009 53 216 0.0 2.6 0.00 0.00 0.00 98 1014.6
20260502122009 53 176 0.0 2.6 0.00 0.00 0.00 100 1014.6
20260502121009 53 164 0.9 4.3 0.00 0.00 0.00 100 1014.7
20260502114009 52 106 0.0 0.0 0.00 0.00 0.00 100 1014.9
20260502113009 52 106 0.0 0.0 0.00 0.00 0.00 100 1014.9
20260502112010 52 106 0.0 0.0 0.00 0.00 0.00 100 1015.0
20260502111009 52 106 0.0 0.0 0.00 0.00 0.00 100 1015.0
20260502110010 52 106 0.0 0.0 0.00 0.00 0.00 100 1015.0
20260502105010 52 106 0.0 0.0 0.00 0.00 0.00 100 1015.1
20260502104010 52 106 0.0 0.0 0.00 0.00 0.00 100 1015.2
20260502103010 52 106 0.0 0.0 0.00 0.00 0.00 100 1015.2
20260502102010 52 106 0.0 0.0 0.00 0.00 0.00 100 1015.2
20260502101010 52 106 0.0 0.0 0.00 0.00 0.00 100 1015.2
20260502091010 53 106 0.0 0.0 0.00 0.00 0.00 100 1015.6
20260502071010 54 106 0.0 0.0 0.00 0.00 0.00 100 1016.3
20260502070009 54 106 0.0 0.0 0.00 0.00 0.00 98 1016.3
20260502065009 55 106 0.0 0.0 0.00 0.00 0.00 97 1016.3
20260502064009 55 106 0.0 0.0 0.00 0.00 0.00 96 1016.3
20260502063009 55 106 0.0 0.0 0.00 0.00 0.00 95 1016.2
20260502060009 56 106 0.0 0.0 0.00 0.00 0.00 93 1016.3
20260502055010 56 106 0.0 0.0 0.00 0.00 0.00 93 1016.6
20260502054009 56 106 0.0 0.0 0.00 0.00 0.00 92 1016.4
20260502053010 57 106 0.0 4.3 0.00 0.00 0.00 92 1016.6
20260502052010 57 10 0.0 0.0 0.00 0.00 0.00 91 1016.4
20260502051010 58 10 0.0 0.0 0.00 0.00 0.00 90 1016.6
20260502045010 59 10 0.0 0.0 0.00 0.00 0.00 86 1016.6
20260502044009 60 10 0.0 0.0 0.00 0.00 0.00 84 1016.4
20260502043009 60 10 0.0 0.0 0.00 0.00 0.00 82 1016.4
20260502042010 61 10 0.0 0.0 0.00 0.00 0.00 79 1016.3
20260502040010 63 10 0.0 0.0 0.00 0.00 0.00 74 1016.2
20260502035009 64 10 0.0 0.0 0.00 0.00 0.00 73 1016.2
20260502034009 64 10 0.0 0.0 0.00 0.00 0.00 70 1016.1
20260502033010 65 10 0.0 0.0 0.00 0.00 0.00 68 1016.1
20260502032009 66 10 0.0 0.0 0.00 0.00 0.00 67 1016.0
20260502031010 67 10 0.0 0.0 0.00 0.00 0.00 65 1016.0
20260502025009 68 10 0.0 0.0 0.00 0.00 0.00 60 1015.9
20260502024010 69 10 0.0 0.0 0.00 0.00 0.00 59 1015.8
20260502023009 70 10 0.0 0.0 0.00 0.00 0.00 56 1015.8
20260502022009 71 10 0.0 0.0 0.00 0.00 0.00 54 1015.9
20260502021010 71 10 0.0 0.0 0.00 0.00 0.00 54 1015.9
20260502014010 73 10 0.0 0.0 0.00 0.00 0.00 48 1016.0
20260502013010 74 10 0.0 0.0 0.00 0.00 0.00 46 1016.1
20260502012010 74 10 0.0 0.0 0.00 0.00 0.00 46 1016.2
20260502011010 74 10 0.0 0.0 0.00 0.00 0.00 45 1016.2
20260502010009 74 10 0.0 2.6 0.00 0.00 0.00 45 1016.3
20260502005009 74 6 0.0 0.0 0.00 0.00 0.00 44 1016.4
20260502004010 74 6 0.0 5.2 0.00 0.00 0.00 44 1016.4
20260502003009 74 351 0.0 6.1 0.00 0.00 0.00 45 1016.3
20260502002009 74 251 0.9 4.3 0.00 0.00 0.00 44 1016.4
20260502001010 74 11 0.0 5.2 0.00 0.00 0.00 44 1016.3
20260502000010 75 5 1.7 7.8 0.00 0.00 0.00 44 1016.3
20260501235009 75 326 3.5 7.8 0.00 0.00 0.00 42 1016.4
20260501234010 75 8 4.3 7.8 0.00 0.00 0.00 40 1016.4
20260501233009 75 16 1.7 8.7 0.00 0.00 0.00 41 1016.6
20260501232010 75 310 3.5 10.4 0.00 0.00 0.00 42 1016.7
20260501231011 75 339 1.7 11.3 0.00 0.00 0.00 44 1016.7
20260501230010 76 4 2.6 12.2 0.00 0.00 0.00 43 1016.8
20260501224010 76 318 1.7 8.7 0.00 0.00 0.00 43 1017.0
20260501221010 76 230 2.6 7.0 0.00 0.00 0.00 40 1017.4